Fryeburg, ME

5:56 AM EDT on July 21, 2017 (GMT -0400)
Eastern Slopes Regional

Weather History for KIZG - November, 2013

Change the Weather History Date:

Sunday, November 3, 2013

  Actual Average Record
Temperature  
Mean Temperature 36 °F -  
Max Temperature 44 °F 48 °F 68 °F (2001)
Min Temperature 30 °F 28 °F 8 °F (2002)
Degree Days  
Heating Degree Days 28    
Moisture  
Dew Point 21 °F    
Average Humidity 52    
Maximum Humidity 81    
Minimum Humidity 31    
Precipitation  
Precipitation 0.00 in - - ()
Sea Level Pressure  
Sea Level Pressure 30.11 in    
Wind  
Wind Speed 7 mph (NNE)    
Max Wind Speed 12 mph    
Max Gust Speed 17 mph    
Visibility 10 miles    
Events      
Averages and records for this station are not official NWS values.
T = Trace of Precipitation, MM = Missing Value Source: NWS Daily Summary

Daily Weather History Graph

Daily Weather History Graph

Search for Another Location

Airport or City:

Trip Planner

Search our weather history database for the weather conditions in past years. The results will help you decide how hot, cold, wet, or windy it might be!

Date:

Astronomy

Nov. 03, 2013 Rise Set
Actual Time 6:23 AM EST 4:30 PM EST
Civil Twilight 5:52 AM EST 5:01 PM EST
Nautical Twilight 5:18 AM EST 5:35 PM EST
Astronomical Twilight 4:45 AM EST 6:08 PM EST
Moon 6:23 AM EST (11/3) 4:42 PM EST (11/3)
Length of Visible Light 11h 08m
Length of Day
10h 07m
New Moon, 0% of the Moon is Illuminated
Nov 3
New Moon
Nov 10
First Quarter
Nov 17
Full
Nov 25
Last Quarter
Dec 2
New

Hourly Weather History & Observations

Time (EST) Temp. Windchill Dew Point Humidity Pressure Visibility Wind Dir Wind Speed Gust Speed Precip Events Conditions
12:28 AM 42.8 °F 39.3 °F 37.4 °F 81% 29.79 in 10.0 mi North 5.8 mph - N/A   Overcast
12:54 AM 42.1 °F 39.2 °F 36.0 °F 79% 29.80 in 10.0 mi NNE 4.6 mph - N/A   Overcast
1:54 AM 42.1 °F 39.2 °F 33.1 °F 70% 29.83 in 10.0 mi NNE 4.6 mph - N/A   Overcast
1:54 AM 41.0 °F 36.4 °F 32.0 °F 70% 29.86 in 10.0 mi NE 6.9 mph - 0.00 in   Overcast
2:54 AM 41.0 °F 36.4 °F 28.0 °F 60% 29.88 in 10.0 mi NNE 6.9 mph - N/A   Overcast
3:54 AM 39.9 °F 37.8 °F 28.0 °F 63% 29.92 in 10.0 mi North 3.5 mph - N/A   Overcast
4:54 AM 37.9 °F 33.5 °F 27.0 °F 65% 29.96 in 10.0 mi North 5.8 mph - N/A   Overcast
5:54 AM 37.0 °F 33.3 °F 26.1 °F 65% 29.99 in 10.0 mi North 4.6 mph - N/A   Overcast
6:54 AM 36.0 °F 29.0 °F 25.0 °F 64% 30.04 in 10.0 mi NE 9.2 mph - N/A   Overcast
7:54 AM 36.0 °F 29.6 °F 23.0 °F 59% 30.08 in 10.0 mi NNE 8.1 mph - N/A   Overcast
8:54 AM 37.9 °F 31.5 °F 21.0 °F 51% 30.11 in 10.0 mi NE 9.2 mph - N/A   Overcast
9:54 AM 39.9 °F 33.9 °F 15.1 °F 36% 30.12 in 10.0 mi NNE 9.2 mph - N/A   Scattered Clouds
10:54 AM 41.0 °F 34.3 °F 14.0 °F 33% 30.14 in 10.0 mi North 11.5 mph - N/A   Mostly Cloudy
11:54 AM 39.9 °F 34.5 °F 15.1 °F 36% 30.14 in 10.0 mi NE 8.1 mph - N/A   Clear
12:54 PM 43.0 °F 37.7 °F 15.1 °F 32% 30.13 in 10.0 mi NNE 9.2 mph - N/A   Clear
1:54 PM 43.0 °F 36.8 °F 14.0 °F 31% 30.16 in 10.0 mi NNE 11.5 mph - N/A   Clear
2:54 PM 41.0 °F 34.7 °F 15.1 °F 35% 30.19 in 10.0 mi NNW 10.4 mph - N/A   Clear
3:54 PM 37.9 °F 33.5 °F 15.1 °F 39% 30.22 in 10.0 mi NNE 5.8 mph - N/A   Clear
4:54 PM 34.0 °F 28.8 °F 16.0 °F 48% 30.26 in 10.0 mi North 5.8 mph - N/A   Clear
5:54 PM 33.1 °F 28.7 °F 16.0 °F 50% 30.31 in 10.0 mi Variable 4.6 mph - N/A   Clear
6:54 PM 33.1 °F 25.5 °F 15.1 °F 48% 30.33 in 10.0 mi North 9.2 mph 17.3 mph N/A   Clear
7:54 PM 32.0 °F 27.5 °F 14.0 °F 48% 30.36 in 10.0 mi North 4.6 mph - N/A   Clear
8:54 PM 30.9 °F 25.2 °F 12.9 °F 47% 30.39 in 10.0 mi North 5.8 mph - N/A   Clear
9:54 PM 30.9 °F 25.2 °F 12.0 °F 46% 30.41 in 10.0 mi NNW 5.8 mph - N/A   Clear
10:54 PM 30.0 °F 24.1 °F 12.0 °F 47% 30.43 in 10.0 mi NNW 5.8 mph - N/A   Clear